Wind_Speed
30 30 30 31 31 30 28 27 26 25 25 25 25 24 24 24 25 26 27 28 28 28 29 27 27 29 30 30 31 31 30 30 31 30 30 30 30 30 30 31 31 31 31
29 30 31 31 31 30 29 28 27 26 26 26 25 25 26 27 27 28 28 28 28 29 28 28 28 30 31 31 31 32 32 32 32 31 31 30 31 31 32 32 33 34 33
28 30 31 31 31 31 30 29 28 27 27 28 28 27 27 28 28 28 29 28 28 29 30 30 31 32 32 32 32 32 33 33 33 33 33 33 33 33 32 34 35 35 34
27 28 30 30 31 31 30 29 29 29 29 29 30 28 27 27 27 28 29 29 29 30 32 32 33 33 33 33 33 33 33 33 33 33 33 33 33 33 33 33 34 34 35
27 28 29 30 30 31 30 30 30 31 31 30 30 29 28 28 27 27 28 30 30 30 31 33 33 33 34 33 33 33 34 33 34 34 33 33 34 34 34 34 35 36 36
25 27 28 29 29 30 30 30 31 31 31 30 30 30 30 29 28 28 28 29 31 32 33 34 35 35 34 34 34 34 35 34 34 35 35 35 35 35 36 36 36 37 37
23 24 26 28 29 29 30 30 31 31 31 31 30 31 31 30 29 28 28 28 29 31 32 33 34 35 35 34 35 36 36 35 35 36 36 36 37 37 38 39 39 40 40
23 23 24 25 27 28 29 30 30 31 31 31 30 30 29 28 27 27 27 26 26 28 29 31 33 34 34 34 35 35 35 35 35 36 36 37 38 39 39 40 41 42 42
20 23 24 25 26 27 28 28 29 30 31 31 31 30 27 27 27 26 26 26 27 27 28 28 29 31 32 32 33 33 34 35 36 37 37 38 39 40 40 41 42 42 42
18 20 23 26 26 26 27 28 28 29 30 31 30 29 28 28 27 27 27 26 25 25 25 26 27 29 31 31 32 33 34 35 35 37 38 39 40 41 41 42 42 42 42
18 19 21 23 25 26 27 28 28 28 28 29 29 29 28 28 27 26 26 26 26 27 27 28 28 28 29 30 30 32 34 34 35 37 38 39 40 40 41 41 41 42 42
17 18 19 21 23 24 26 27 27 27 27 27 27 26 27 27 27 27 26 25 26 27 28 28 29 29 29 29 30 32 32 34 35 35 36 37 38 39 40 40 41 41 41
15 16 18 20 21 22 23 24 25 25 25 26 26 26 26 26 27 27 27 26 26 27 27 28 28 28 28 28 30 31 31 33 34 34 35 36 37 38 38 38 39 39 39
15 15 16 19 20 21 22 23 23 24 25 24 24 24 24 24 25 25 25 26 26 26 27 27 27 27 27 28 30 30 31 32 34 35 36 36 37 36 37 37 37 37 38
15 15 16 18 20 20 21 21 21 23 23 23 24 24 24 24 24 24 25 25 25 26 26 27 27 27 27 28 29 30 31 32 33 33 33 34 34 34 34 34 35 35 35
14 14 15 16 17 18 19 20 20 21 21 22 22 22 22 22 23 24 24 24 24 24 26 27 28 28 28 28 29 30 30 31 31 31 31 31 32 32 32 32 33 32 32
13 13 14 14 15 16 17 18 18 19 20 20 21 21 22 22 22 22 23 23 24 24 25 26 27 27 27 28 28 28 28 29 29 29 30 30 30 29 29 29 30 30 30
14 13 13 14 14 15 15 17 17 18 18 18 19 20 21 21 21 21 22 23 24 24 25 25 25 26 26 26 27 27 27 27 27 27 27 27 27 27 27 27 27 27 26
12 12 12 12 13 14 14 15 15 15 17 17 18 18 19 19 20 21 21 22 23 24 24 24 24 25 25 25 25 25 25 25 24 24 24 24 24 25 25 24 23 23 23
11 11 11 11 12 12 12 14 14 14 14 15 16 17 18 19 20 20 20 21 22 22 22 23 23 23 24 23 23 22 22 22 22 22 21 22 22 22 21 20 20 20 20
10 10 10 10 10 10 10 11 12 12 12 13 14 15 16 17 18 18 19 20 20 21 21 21 22 22 22 21 20 19 19 19 19 19 20 20 19 19 18 18 18 18 18
9 9 9 10 10 10 10 10 10 10 11 11 11 12 14 15 15 16 17 17 18 19 19 20 20 20 20 19 18 17 17 17 17 17 17 17 16 16 16 16 16 15 15
7 8 8 8 9 9 9 9 10 10 10 10 10 11 11 11 12 13 13 14 15 16 16 16 16 16 16 16 15 15 15 15 15 15 15 14 14 14 14 14 14 13 13
7 7 7 8 8 8 8 8 8 8 9 9 9 10 11 11 11 12 12 12 11 12 12 12 12 13 13 13 13 13 13 13 13 13 12 12 12 13 13 13 12 11 10
6 5 6 6 6 7 6 6 7 7 7 7 8 8 9 9 9 9 9 9 9 9 9 9 10 10 10 10 11 11 11 11 11 11 11 11 11 11 11 11 10 9 8
6 6 6 6 6 6 6 5 5 6 6 6 7 7 8 8 8 7 7 7 7 7 8 8 8 8 8 8 8 8 8 8 8 9 9 9 10 9 9 8 8 8 7
Wind_Direction
237 236 236 238 241 243 246 249 249 251 253 252 252 255 255 255 254 253 252 252 251 251 250 246 247 250 252 252 251 251 252 252 255 258 261 263 266 268 269 270 272 274 276
236 235 236 238 240 242 244 248 251 252 257 258 257 258 258 257 255 255 254 253 251 250 248 248 249 252 252 253 255 253 252 255 257 259 261 263 266 269 271 272 273 274 275
239 236 237 238 240 243 247 250 252 253 257 258 259 260 260 258 256 256 256 254 253 251 251 250 249 251 253 253 255 253 254 256 257 258 261 263 267 268 270 271 272 273 275
240 238 237 239 240 243 247 250 253 255 257 258 259 262 264 263 261 260 258 257 256 254 252 250 250 250 250 252 254 253 255 256 256 258 261 264 267 269 271 272 273 275 276
239 237 237 238 239 242 246 249 252 255 257 259 260 262 266 267 266 265 262 258 256 255 254 249 249 251 251 251 251 253 254 255 256 259 263 265 268 270 271 272 275 276 278
242 239 238 238 239 242 245 249 251 256 258 259 259 261 264 266 267 268 265 261 258 255 254 252 250 250 251 250 251 252 254 255 257 260 263 266 267 269 272 275 276 278 279
243 241 241 238 239 243 247 249 252 256 257 258 258 261 264 266 266 266 262 261 258 254 253 250 248 248 249 251 252 254 256 256 258 261 264 266 268 272 274 276 277 278 279
243 242 243 241 242 246 249 251 252 254 256 259 260 260 260 262 263 264 264 263 259 254 252 251 249 248 251 252 253 255 256 257 259 262 265 268 271 274 275 276 276 277 279
244 241 243 244 246 248 251 253 254 255 257 259 259 258 258 260 263 263 262 262 261 258 254 252 252 252 252 252 254 257 258 261 264 265 267 270 272 274 275 275 276 278 279
251 246 245 244 247 249 251 253 255 257 258 257 256 257 258 260 261 260 259 261 261 258 257 255 255 256 256 257 259 259 261 264 266 268 270 272 273 273 275 277 277 279 281
254 251 249 248 248 250 252 254 254 256 257 257 256 257 259 259 259 260 259 259 261 260 258 256 257 258 259 260 261 262 263 265 267 270 272 274 275 275 277 279 280 281 282
254 252 252 251 250 251 252 252 254 255 258 258 256 257 258 259 260 259 258 256 257 258 257 258 259 261 261 262 262 265 267 269 270 273 274 276 277 277 279 280 281 282 283
257 257 256 254 253 254 255 256 254 254 255 256 256 258 260 259 258 257 255 256 257 260 260 259 259 261 263 265 267 269 271 272 273 275 276 277 278 279 280 281 282 283 285
266 265 261 259 256 256 257 257 254 255 255 256 257 257 258 257 257 255 254 255 256 259 261 260 261 263 265 267 269 271 274 276 276 276 277 279 280 280 281 282 283 284 286
270 267 268 266 261 260 257 256 257 257 256 255 255 255 255 256 257 258 257 257 257 259 260 261 265 267 268 270 272 273 275 277 278 279 280 280 280 282 282 283 284 286 287
275 273 271 268 263 261 261 259 258 257 257 257 256 255 255 255 257 256 258 259 262 263 262 265 269 270 270 272 274 276 277 278 279 280 281 282 282 283 285 286 287 287 288
279 277 273 270 267 266 263 263 262 261 259 258 260 260 259 259 257 258 259 262 265 267 267 268 270 272 273 274 276 278 279 280 281 282 283 285 285 285 287 288 288 289 289
281 279 276 272 270 270 269 269 268 265 261 260 260 260 259 258 259 260 262 264 265 267 268 270 271 273 275 276 277 279 281 283 283 284 285 286 286 287 288 288 289 290 291
282 276 273 273 271 272 274 272 271 268 266 263 260 259 261 261 262 264 265 264 265 268 270 272 273 274 275 276 277 280 282 283 285 286 287 287 287 289 290 290 290 291 293
287 284 276 276 277 277 276 276 274 272 267 265 263 263 264 264 265 266 266 266 267 269 271 272 273 274 275 276 279 281 282 283 285 286 287 288 290 291 291 291 292 293 295
291 288 286 286 287 287 283 280 279 280 274 270 267 265 267 268 268 267 267 268 268 270 272 273 274 275 276 277 280 281 281 283 285 287 289 290 292 293 292 293 294 294 296
297 294 291 289 292 292 289 288 285 284 281 277 274 272 273 271 269 268 268 268 269 273 274 273 273 275 275 277 279 280 281 284 287 289 290 291 292 293 294 295 295 296 297
305 302 300 300 300 297 296 296 294 291 288 283 279 277 278 273 273 272 271 271 272 273 274 274 274 274 274 276 277 277 280 284 286 288 290 291 292 294 295 295 296 297 299
313 310 307 305 303 300 301 297 296 295 292 286 281 280 282 281 279 278 276 276 275 276 276 275 273 273 272 273 275 278 281 283 286 289 290 291 293 295 295 296 298 299 300
333 325 322 323 315 307 304 301 300 299 300 297 291 289 288 285 285 284 280 278 279 280 281 280 277 276 276 276 278 280 280 282 285 288 291 294 296 297 299 301 301 301 302
355 343 336 335 331 325 318 317 314 310 307 305 301 295 293 291 288 285 284 284 284 284 283 283 282 282 282 283 284 284 282 284 289 294 297 298 299 298 297 299 302 302 305
Height
5813 5815 5817 5820 5821 5823 5824 5825 5826 5827 5828 5829 5829 5830 5830 5831 5831 5833 5834 5835 5836 5837 5838 5839 5840 5842 5843 5845 5845 5846 5847 5848 5848 5849 5850 5849 5849 5849 5848 5847 5846 5846 5844
5806 5809 5811 5813 5815 5817 5818 5819 5820 5822 5822 5823 5823 5823 5824 5825 5826 5827 5827 5828 5829 5830 5831 5833 5834 5835 5837 5838 5838 5839 5840 5841 5842 5843 5843 5843 5843 5842 5841 5840 5840 5839 5838
5800 5803 5805 5807 5809 5811 5812 5814 5815 5816 5817 5817 5817 5818 5818 5818 5819 5819 5820 5821 5822 5823 5823 5825 5826 5828 5829 5831 5832 5832 5833 5834 5835 5835 5836 5836 5836 5835 5834 5833 5832 5831 5830
5794 5796 5798 5801 5803 5805 5806 5808 5809 5810 5810 5811 5812 5812 5812 5812 5812 5812 5813 5814 5814 5815 5816 5817 5819 5820 5821 5823 5824 5825 5826 5827 5827 5828 5828 5828 5828 5827 5827 5826 5824 5823 5822
5788 5790 5792 5794 5796 5798 5800 5801 5802 5803 5803 5804 5805 5806 5806 5806 5805 5805 5804 5806 5807 5808 5808 5809 5810 5812 5813 5815 5816 5817 5818 5819 5819 5820 5820 5820 5820 5819 5818 5818 5816 5815 5813
5782 5784 5785 5787 5789 5792 5793 5795 5795 5796 5797 5798 5799 5799 5799 5799 5798 5797 5797 5798 5799 5799 5800 5801 5803 5804 5805 5807 5808 5809 5810 5811 5811 5812 5812 5812 5811 5810 5809 5808 5807 5806 5804
5776 5777 5779 5781 5783 5785 5786 5788 5789 5789 5790 5791 5791 5792 5792 5792 5792 5791 5791 5792 5792 5792 5792 5793 5794 5796 5797 5798 5800 5801 5802 5803 5803 5803 5803 5803 5803 5802 5800 5799 5797 5796 5794
5770 5772 5773 5775 5777 5778 5780 5781 5782 5782 5783 5783 5784 5785 5785 5785 5785 5785 5785 5785 5785 5785 5785 5786 5787 5788 5789 5790 5792 5793 5793 5794 5794 5794 5794 5794 5793 5792 5791 5789 5788 5786 5784
5765 5766 5768 5769 5771 5772 5773 5774 5774 5775 5776 5777 5777 5778 5778 5778 5778 5778 5778 5778 5778 5778 5778 5779 5779 5781 5782 5782 5783 5784 5785 5785 5785 5785 5785 5784 5784 5782 5781 5779 5777 5776 5773
5760 5761 5762 5763 5764 5765 5766 5767 5768 5768 5769 5769 5770 5770 5770 5771 5771 5771 5771 5771 5771 5771 5771 5772 5773 5773 5774 5775 5776 5776 5776 5776 5776 5776 5775 5774 5773 5772 5770 5769 5767 5764 5763
5754 5755 5755 5756 5757 5758 5759 5760 5761 5761 5762 5762 5762 5762 5763 5763 5763 5764 5764 5763 5764 5764 5765 5765 5766 5766 5767 5767 5768 5768 5768 5767 5767 5767 5766 5764 5763 5762 5760 5758 5756 5754 5752
5749 5749 5749 5750 5751 5751 5752 5753 5753 5754 5754 5754 5755 5755 5756 5756 5756 5756 5756 5757 5757 5757 5758 5758 5758 5759 5759 5759 5759 5759 5759 5759 5758 5757 5756 5754 5753 5751 5750 5748 5746 5744 5742
5744 5744 5744 5744 5744 5744 5745 5745 5746 5746 5746 5747 5747 5747 5748 5748 5749 5748 5749 5750 5750 5750 5751 5751 5751 5751 5751 5751 5751 5751 5751 5750 5749 5748 5746 5745 5743 5741 5740 5738 5736 5734 5731
5739 5738 5738 5738 5738 5738 5738 5738 5739 5739 5739 5740 5740 5741 5741 5741 5742 5742 5742 5743 5743 5743 5743 5743 5744 5744 5744 5744 5744 5743 5742 5741 5740 5738 5737 5735 5734 5732 5730 5728 5726 5724 5722
5734 5733 5733 5732 5732 5732 5732 5731 5732 5732 5733 5733 5734 5734 5735 5735 5735 5736 5736 5736 5736 5736 5737 5737 5737 5737 5737 5736 5736 5735 5734 5732 5731 5729 5728 5726 5724 5722 5720 5719 5717 5715 5712
5729 5728 5727 5726 5726 5726 5726 5726 5726 5726 5726 5727 5727 5727 5728 5728 5729 5729 5729 5729 5729 5730 5730 5730 5730 5729 5729 5728 5728 5727 5726 5724 5723 5721 5719 5717 5716 5714 5712 5710 5708 5706 5704
5725 5723 5722 5722 5721 5720 5720 5720 5720 5720 5720 5721 5721 5721 5721 5722 5722 5723 5723 5723 5723 5723 5723 5723 5723 5722 5721 5721 5720 5719 5718 5716 5715 5713 5711 5709 5707 5706 5704 5702 5700 5698 5696
5720 5719 5718 5717 5716 5716 5715 5715 5715 5715 5715 5715 5715 5715 5715 5716 5716 5717 5717 5717 5717 5717 5717 5716 5716 5715 5714 5714 5713 5712 5710 5709 5707 5705 5704 5702 5700 5698 5697 5695 5693 5690 5688
5716 5715 5714 5713 5712 5711 5711 5710 5709 5709 5709 5709 5710 5710 5710 5710 5710 5710 5710 5711 5711 5710 5710 5709 5709 5708 5708 5707 5706 5705 5703 5702 5700 5698 5697 5695 5694 5692 5690 5688 5686 5684 5682
5712 5711 5710 5709 5708 5707 5706 5705 5705 5704 5704 5704 5704 5705 5705 5705 5705 5705 5705 5705 5704 5704 5704 5703 5702 5702 5701 5700 5699 5698 5697 5695 5694 5693 5691 5689 5687 5686 5684 5682 5680 5678 5676
5709 5707 5706 5705 5704 5703 5702 5702 5701 5700 5700 5700 5700 5700 5700 5700 5700 5699 5699 5699 5699 5698 5697 5697 5696 5695 5694 5693 5693 5692 5691 5690 5689 5687 5685 5684 5682 5680 5679 5677 5675 5673 5672
5706 5704 5703 5702 5701 5700 5699 5698 5697 5697 5696 5696 5696 5695 5695 5694 5694 5694 5693 5693 5693 5692 5692 5691 5690 5689 5688 5688 5687 5687 5686 5685 5684 5682 5681 5679 5678 5676 5674 5673 5671 5669 5668
5703 5702 5700 5699 5698 5697 5696 5695 5694 5693 5693 5692 5692 5691 5691 5690 5690 5689 5689 5688 5688 5687 5686 5686 5685 5684 5683 5683 5682 5682 5681 5680 5679 5678 5676 5675 5674 5672 5671 5669 5668 5666 5664
5701 5699 5698 5697 5696 5695 5694 5693 5692 5691 5690 5689 5689 5688 5687 5686 5686 5685 5685 5684 5684 5683 5682 5681 5681 5680 5679 5679 5678 5678 5677 5676 5675 5674 5673 5672 5670 5669 5667 5666 5664 5662 5661
5699 5698 5697 5695 5694 5693 5692 5691 5690 5689 5688 5687 5686 5685 5684 5683 5683 5682 5682 5681 5680 5680 5679 5678 5677 5677 5676 5675 5675 5674 5673 5673 5672 5671 5670 5669 5667 5666 5664 5662 5661 5659 5658
5698 5697 5695 5694 5692 5691 5690 5689 5688 5687 5686 5685 5684 5683 5682 5681 5680 5680 5679 5678 5678 5677 5676 5676 5675 5674 5673 5672 5672 5671 5670 5670 5669 5668 5667 5666 5664 5663 5661 5660 5658 5657 5655